Powrót do katalogu

DELTA 1 DEB

AktywnyUNKNOWN
NORAD 7016·DEBRIS·🇺🇸 United States

Wystrzelony Nov 6, 1973 z Vandenberg Space Force Base

Loading…

Następne Przeloty (najbliższe 24 godziny)

TLE

ŚwieżeSource: Space-Track

Epoka: Sep 13, 2026, 19:28 UTC

1 07016U 73086G   26256.81113449  .00000182  00000-0  37822-2 0  9995
2 07016 101.7028 353.8283 0511160 241.6167 248.2916 11.45464972209565

Śledź DELTA 1 DEB w czasie rzeczywistym z AllMySat

Download on the App Store